When you browse on this site, cookies collect data to enhance your experience and personalize the content and advertising you see.
Visit our Privacy Policy to learn more. By continuing to use the site, you agree to this use of cookies and data.
EN

Hourly Weather Koeln

Today, 14 August, Friday

Time Temperature Precipitation Wind Pressure Humidity
00:00 +24°C° 0 mm 1 mps 754 mmHg 80%
01:00 +24°C° 0.3 mm 1 mps 754 mmHg 81%
02:00 +23°C° 0.3 mm 1 mps 754 mmHg 81%
03:00 +23°C° 0.3 mm 1 mps 754 mmHg 81%
04:00 +23°C° 0.1 mm 1 mps 754 mmHg 80%
05:00 +23°C° 0.1 mm 2 mps 754 mmHg 79%
06:00 +23°C° 0.1 mm 2 mps 754 mmHg 78%
07:00 +25°C° 0 mm 2 mps 754 mmHg 73%
08:00 +26°C° 0 mm 2 mps 754 mmHg 67%
09:00 +27°C° 0 mm 2 mps 754 mmHg 62%
10:00 +28°C° 0.2 mm 2 mps 754 mmHg 59%
11:00 +29°C° 0.2 mm 2 mps 754 mmHg 57%
12:00 +30°C° 0.2 mm 2 mps 754 mmHg 54%
13:00 +30°C° 0.9 mm 1 mps 754 mmHg 56%
14:00 +29°C° 0.9 mm 1 mps 754 mmHg 57%
15:00 +29°C° 0.9 mm 1 mps 754 mmHg 58%
16:00 +28°C° 0.2 mm 1 mps 754 mmHg 63%
17:00 +27°C° 0.2 mm 1 mps 754 mmHg 67%
18:00 +26°C° 0.2 mm 2 mps 754 mmHg 71%
19:00 +25°C° 0.6 mm 2 mps 754 mmHg 75%
20:00 +24°C° 0.6 mm 2 mps 754 mmHg 79%
21:00 +23°C° 0.6 mm 2 mps 754 mmHg 82%
22:00 +23°C° 0.3 mm 1 mps 754 mmHg 83%
23:00 +22°C° 0.3 mm 1 mps 755 mmHg 84%

Tomorrow, 15 August, Saturday

Time Temperature Precipitation Wind Pressure Humidity
00:00 +22°C° 0.3 mm 1 mps 755 mmHg 84%
01:00 +22°C° 0 mm 1 mps 755 mmHg 85%
02:00 +22°C° 0 mm 1 mps 754 mmHg 86%
03:00 +22°C° 0 mm 1 mps 754 mmHg 86%
04:00 +22°C° 0 mm 1 mps 755 mmHg 85%
05:00 +22°C° 0 mm 1 mps 755 mmHg 84%
06:00 +22°C° 0 mm 1 mps 755 mmHg 83%
07:00 +24°C° 0 mm 1 mps 755 mmHg 77%
08:00 +25°C° 0 mm 1 mps 755 mmHg 71%
09:00 +27°C° 0 mm 1 mps 755 mmHg 64%
10:00 +28°C° 0 mm 1 mps 755 mmHg 61%
11:00 +29°C° 0 mm 1 mps 755 mmHg 57%
12:00 +30°C° 0 mm 1 mps 755 mmHg 53%
13:00 +30°C° 0.2 mm 1 mps 754 mmHg 52%
14:00 +30°C° 0.2 mm 1 mps 754 mmHg 52%
15:00 +30°C° 0.2 mm 1 mps 754 mmHg 51%
16:00 +29°C° 0.4 mm 1 mps 754 mmHg 56%
17:00 +28°C° 0.4 mm 1 mps 754 mmHg 61%
18:00 +27°C° 0.4 mm 1 mps 753 mmHg 66%
19:00 +26°C° 0.4 mm 1 mps 754 mmHg 70%
20:00 +25°C° 0.4 mm 1 mps 754 mmHg 74%
21:00 +24°C° 0.4 mm 1 mps 754 mmHg 78%
22:00 +23°C° 0.1 mm 1 mps 754 mmHg 80%
23:00 +23°C° 0.1 mm 1 mps 754 mmHg 82%

Day after tomorrow, 16 August, Sunday

Time Temperature Precipitation Wind Pressure Humidity
00:00 +22°C° 0.1 mm 1 mps 754 mmHg 84%
01:00 +22°C° 0 mm 1 mps 753 mmHg 85%
02:00 +22°C° 0 mm 1 mps 753 mmHg 86%
03:00 +21°C° 0 mm 1 mps 753 mmHg 87%
04:00 +22°C° 0 mm 1 mps 753 mmHg 85%
05:00 +22°C° 0 mm 1 mps 753 mmHg 84%
06:00 +23°C° 0 mm 1 mps 753 mmHg 82%
07:00 +24°C° 0 mm 1 mps 753 mmHg 75%
08:00 +26°C° 0 mm 1 mps 754 mmHg 68%
09:00 +27°C° 0 mm 1 mps 754 mmHg 61%
10:00 +29°C° 0 mm 1 mps 753 mmHg 54%
11:00 +30°C° 0 mm 1 mps 753 mmHg 47%
12:00 +31°C° 0 mm 1 mps 753 mmHg 40%
13:00 +31°C° 0 mm 1 mps 753 mmHg 39%
14:00 +31°C° 0 mm 1 mps 752 mmHg 37%
15:00 +31°C° 0 mm 1 mps 752 mmHg 36%
16:00 +30°C° 0 mm 1 mps 752 mmHg 40%
17:00 +29°C° 0 mm 1 mps 752 mmHg 45%
18:00 +28°C° 0 mm 1 mps 752 mmHg 50%
19:00 +27°C° 0 mm 1 mps 752 mmHg 51%
20:00 +26°C° 0 mm 1 mps 752 mmHg 53%
21:00 +25°C° 0 mm 1 mps 752 mmHg 54%
22:00 +24°C° 0 mm 1 mps 752 mmHg 57%
23:00 +24°C° 0 mm 1 mps 752 mmHg 60%

17 August, Monday

Time Temperature Precipitation Wind Pressure Humidity
00:00 +23°C° 0 mm 1 mps 752 mmHg 63%
01:00 +23°C° 0.2 mm 1 mps 752 mmHg 66%
02:00 +22°C° 0.2 mm 1 mps 752 mmHg 69%
03:00 +22°C° 0.2 mm 1 mps 752 mmHg 73%
04:00 +22°C° 0 mm 1 mps 752 mmHg 74%
05:00 +21°C° 0 mm 2 mps 752 mmHg 74%
06:00 +21°C° 0 mm 2 mps 752 mmHg 75%
07:00 +21°C° 0.8 mm 2 mps 752 mmHg 78%
08:00 +22°C° 0.8 mm 1 mps 753 mmHg 80%
09:00 +22°C° 0.8 mm 1 mps 753 mmHg 83%
10:00 +23°C° 0.1 mm 1 mps 753 mmHg 76%
11:00 +24°C° 0.1 mm 1 mps 753 mmHg 70%
12:00 +25°C° 0.1 mm 1 mps 753 mmHg 63%
13:00 +26°C° 0.3 mm 1 mps 752 mmHg 61%
14:00 +26°C° 0.3 mm 2 mps 752 mmHg 60%
15:00 +26°C° 0.3 mm 2 mps 752 mmHg 58%
16:00 +26°C° 0.1 mm 2 mps 752 mmHg 60%
17:00 +25°C° 0.1 mm 2 mps 752 mmHg 63%
18:00 +24°C° 0.1 mm 2 mps 752 mmHg 65%
19:00 +23°C° 0 mm 2 mps 752 mmHg 67%
20:00 +21°C° 0 mm 2 mps 752 mmHg 69%
21:00 +20°C° 0 mm 2 mps 753 mmHg 71%
22:00 +20°C° 0 mm 2 mps 753 mmHg 72%
23:00 +19°C° 0 mm 2 mps 753 mmHg 74%

18 August, Tuesday

Time Temperature Precipitation Wind Pressure Humidity
00:00 +19°C° 0 mm 2 mps 753 mmHg 75%
01:00 +18°C° 0 mm 2 mps 753 mmHg 78%
02:00 +18°C° 0 mm 2 mps 753 mmHg 81%
03:00 +17°C° 0 mm 2 mps 753 mmHg 84%
04:00 +18°C° 0 mm 2 mps 753 mmHg 83%
05:00 +18°C° 0 mm 2 mps 753 mmHg 82%
06:00 +18°C° 0 mm 2 mps 754 mmHg 80%
07:00 +20°C° 0 mm 2 mps 754 mmHg 73%
08:00 +21°C° 0 mm 3 mps 754 mmHg 66%
09:00 +22°C° 0 mm 3 mps 754 mmHg 58%
10:00 +23°C° 0 mm 4 mps 754 mmHg 55%
11:00 +25°C° 0 mm 4 mps 753 mmHg 53%
12:00 +26°C° 0 mm 4 mps 753 mmHg 50%
13:00 +26°C° 0.1 mm 4 mps 753 mmHg 50%
14:00 +26°C° 0.1 mm 4 mps 753 mmHg 49%
15:00 +26°C° 0.1 mm 4 mps 753 mmHg 49%
16:00 +25°C° 0.3 mm 4 mps 753 mmHg 56%
17:00 +23°C° 0.3 mm 4 mps 753 mmHg 63%
18:00 +22°C° 0.3 mm 3 mps 753 mmHg 70%
19:00 +21°C° 0.2 mm 3 mps 753 mmHg 74%
20:00 +20°C° 0.2 mm 3 mps 754 mmHg 78%
21:00 +19°C° 0.2 mm 2 mps 754 mmHg 81%
22:00 +18°C° 0 mm 2 mps 754 mmHg 82%
23:00 +18°C° 0 mm 2 mps 754 mmHg 83%

19 August, Wednesday

Time Temperature Precipitation Wind Pressure Humidity
00:00 +17°C° 0 mm 3 mps 754 mmHg 85%
01:00 +17°C° 0 mm 2 mps 754 mmHg 84%
02:00 +17°C° 0 mm 2 mps 753 mmHg 84%
03:00 +16°C° 0 mm 2 mps 753 mmHg 84%
04:00 +16°C° 0 mm 2 mps 753 mmHg 83%
05:00 +17°C° 0 mm 2 mps 753 mmHg 82%
06:00 +17°C° 0 mm 2 mps 753 mmHg 81%
07:00 +19°C° 0 mm 3 mps 753 mmHg 75%
08:00 +20°C° 0 mm 3 mps 753 mmHg 69%
09:00 +22°C° 0 mm 3 mps 753 mmHg 63%
10:00 +24°C° 0 mm 3 mps 753 mmHg 57%
11:00 +25°C° 0 mm 3 mps 752 mmHg 51%
12:00 +26°C° 0 mm 3 mps 752 mmHg 46%
13:00 +27°C° 0 mm 3 mps 752 mmHg 45%
14:00 +27°C° 0 mm 3 mps 751 mmHg 44%
15:00 +27°C° 0 mm 3 mps 751 mmHg 43%
16:00 +26°C° 0 mm 2 mps 751 mmHg 48%
17:00 +25°C° 0 mm 2 mps 750 mmHg 52%
18:00 +24°C° 0 mm 1 mps 750 mmHg 57%
19:00 +23°C° 0 mm 1 mps 750 mmHg 59%
20:00 +22°C° 0 mm 1 mps 750 mmHg 61%
21:00 +20°C° 0 mm 2 mps 750 mmHg 63%
22:00 +21°C° 0 mm 2 mps 749 mmHg 63%
23:00 +21°C° 0 mm 3 mps 748 mmHg 62%
Show more